Location: Asheville, NC
(35.6000°N, 82.5500°W)
Time: 08:52:35
(UTC-05:00)

Tiangong 1 - Pass Details

Date: 14 February 2018
Orbit: 248 x 270 km, 42.8° (Epoch: 20 February)

Event Time Altitude Azimuth Distance (km) Brightness Sun altitude
Exits shadow 06:00:58 14° 7° (N) 865 2.9 -16.2°
Drops below altitude 10° 06:02:09 10° 38° (NE) 1,037 3.7 -16.0°
Sets 06:04:37 0° 67° (ENE) 1,849 5.7 -15.5°
